{"data":{"norad_id":63518,"epoch":"2026-05-25T03:46:22.143072Z","epoch_age_seconds":72115,"freshness":"FRESH","line1":"1 63518U 25071AB  26145.15720073  .00019797  00000+0  46299-3 0  9996","line2":"2 63518  53.1576 144.2605 0000839  50.8952 309.2129 15.42173227 64485","mean_motion":15.42173227,"eccentricity":8.39e-5,"inclination_deg":53.1576,"raan_deg":144.2605,"arg_perigee_deg":50.8952,"mean_anomaly_deg":309.2129,"bstar":0.00046299,"rev_number":6448,"period_min":93.374724368756,"perigee_km":439.12465344822,"apogee_km":440.26868593799,"semimajor_km":6817.8336696931,"source":"CELESTRAK","updated_at":"2026-05-25T13:38:20.039425Z"}}